Weather History for Crestview, FL

Change the Weather History Date:

Saturday, December 22, 2012

  Actual Average Record
Temperature  
Mean Temperature 42 °F -  
Max Temperature 59 °F - - ()
Min Temperature 26 °F - - ()
Degree Days  
Heating Degree Days 22    
Moisture  
Dew Point 22 °F    
Average Humidity 54    
Maximum Humidity 83    
Minimum Humidity 18    
Precipitation  
Precipitation 0.00 in - - ()
Sea Level Pressure  
Sea Level Pressure 30.32 in    
Wind  
Wind Speed 5 mph (NNW)    
Max Wind Speed 13 mph    
Max Gust Speed 18 mph    
Visibility 10 miles    
Events      
T = Trace of Precipitation, MM = Missing Value Source: NWS Daily Summary

Daily Weather History Graph

Daily Weather History Graph

Search for Another Location

Airport:

Trip Planner

Search our weather history database for the weather conditions in past years. The results will help you decide how hot, cold, wet, or windy it might be!

Date:

Astronomy

Dec. 22, 2012 Rise Set
Actual Time 6:40 AM CST 4:49 PM CST
Civil Twilight 6:13 AM CST 5:16 PM CST
Nautical Twilight 5:43 AM CST 5:46 PM CST
Astronomical Twilight 5:13 AM CST 6:16 PM CST
Moon 12:56 PM CST (12/22) 1:37 AM CST (12/22)
Length of Visible Light 11h 03m
Length of Day
10h 09m
Waxing Gibbous, 74% of the Moon is Illuminated
Dec 22
Waxing Gibbous
Dec 28
Full
Jan 4
Last Quarter
Jan 11
New
Jan 18
First Quarter

Hourly Weather History & Observations

Time (CST) Temp. Windchill Dew Point Humidity Pressure Visibility Wind Dir Wind Speed Gust Speed Precip Events Conditions
12:55 AM 36.0 °F 31.1 °F 19.9 °F 52% 30.32 in 10.0 mi NW 5.8 mph - N/A   Clear
1:55 AM 34.7 °F 28.8 °F 19.9 °F 55% 30.32 in 10.0 mi WNW 6.9 mph - N/A   Clear
2:55 AM 33.1 °F 27.7 °F 19.9 °F 59% 30.32 in 10.0 mi NW 5.8 mph - N/A   Clear
3:55 AM 29.8 °F 24.9 °F 20.7 °F 69% 30.32 in 10.0 mi NW 4.6 mph - N/A   Clear
4:55 AM 26.2 °F 19.6 °F 19.8 °F 76% 30.33 in 10.0 mi NW 5.8 mph - N/A   Clear
5:55 AM 26.4 °F 20.9 °F 19.8 °F 76% 30.35 in 10.0 mi NW 4.6 mph - N/A   Clear
6:55 AM 26.2 °F 22.1 °F 19.4 °F 75% 30.38 in 10.0 mi NW 3.5 mph - N/A   Clear
7:55 AM 33.6 °F 28.4 °F 20.7 °F 59% 30.40 in 10.0 mi NW 5.8 mph - N/A   Clear
8:55 AM 39.6 °F 35.4 °F 23.2 °F 52% 30.41 in 10.0 mi North 5.8 mph - N/A   Clear
9:55 AM 47.3 °F - 19.6 °F 33% 30.41 in 10.0 mi North 12.7 mph - N/A   Clear
10:55 AM 51.1 °F - 17.8 °F 27% 30.38 in 10.0 mi North 11.5 mph - N/A   Clear
11:55 AM 55.8 °F - 14.9 °F 20% 30.34 in 10.0 mi NNE 9.2 mph 18.4 mph N/A   Clear
12:55 PM 57.7 °F - 14.7 °F 18% 30.31 in 10.0 mi North 8.1 mph - N/A   Clear
1:55 PM 59.2 °F - 18.5 °F 21% 30.29 in 10.0 mi North 8.1 mph - N/A   Clear
2:55 PM 59.5 °F - 18.5 °F 20% 30.29 in 10.0 mi NNW 6.9 mph - N/A   Clear
3:55 PM 59.0 °F - 18.9 °F 21% 30.28 in 10.0 mi North 8.1 mph - N/A   Clear
4:55 PM 52.9 °F - 27.5 °F 38% 30.28 in 10.0 mi Calm Calm - N/A   Clear
5:55 PM 43.5 °F - 27.7 °F 54% 30.30 in 10.0 mi Calm Calm - N/A   Clear
6:55 PM 37.2 °F - 28.9 °F 72% 30.29 in 10.0 mi Calm Calm - N/A   Clear
7:55 PM 36.0 °F - 29.5 °F 77% 30.29 in 10.0 mi Calm Calm - N/A   Clear
8:55 PM 35.8 °F - 28.4 °F 75% 30.30 in 10.0 mi Calm Calm - N/A   Clear
9:55 PM 32.0 °F - 26.1 °F 79% 30.30 in 10.0 mi Calm Calm - N/A   Clear
10:55 PM 30.6 °F - 26.1 °F 83% 30.28 in 10.0 mi Calm Calm - N/A   Clear
11:55 PM 31.1 °F - 26.6 °F 83% 30.27 in 10.0 mi Calm Calm - N/A   Clear